#timestamp,LO_Frequency,Hit,StdDev 
1621821615.3,286047002.2,N
1621821635.1,286047005.2,N
1621821636.0,286047005.2,N
1621821655.8,286047001.7,N
1621821675.7,286047002.7,N
1621821695.5,286047002.8,N
1621821715.4,286046999.7,N
1621821735.2,286047000.8,N
1621821755.0,286047002.4,N
1621821755.9,286047002.4,N
1621821775.8,286047004.0,N
1621821795.6,286047005.9,Y
1621821815.4,286047001.8,P
1621821835.3,286047001.3,N
1621821855.1,286047005.9,P
1621821875.9,286047005.4,Y
1621821895.7,286047001.0,P
1621821915.5,286047001.0,N
1621821935.4,286046999.1,N
1621821955.2,286046997.9,N
1621821975.1,286046997.2,N
1621821976.0,286046997.2,N
1621821995.8,286046999.3,N
1621822015.6,286047000.7,N
1621822035.5,286046996.9,N
1621822055.3,286046993.4,Y
1621822075.2,286046995.9,P
1621822095.9,286046995.7,N
1621822115.7,286046996.2,N
1621822135.6,286046995.0,Y
1621822155.4,286047000.6,P
1621822175.2,286047002.2,N
1621822195.1,286047001.1,N
1621822196.0,286047001.1,N
1621822215.8,286046998.5,N
1621822235.7,286047000.3,N
1621822255.5,286047000.7,N
1621822275.3,286047002.7,N
1621822295.2,286047000.1,N
1621822315.0,286047000.6,N
1621822315.9,286047000.6,N
1621822335.7,286047000.7,N
1621822355.6,286047002.1,N
1621822375.4,286046999.7,N
1621822395.3,286047000.2,N
1621822415.1,286046998.8,N
1621822416.0,286046998.8,N
1621822435.8,286046999.0,N
1621822455.7,286046999.7,N
1621822475.5,286047000.0,N
1621822495.4,286047000.1,N
1621822515.2,286047000.9,N
1621822535.0,286046998.9,N
1621822535.9,286046998.9,N
1621822555.8,286046999.1,N
1621822575.6,286047001.2,N
1621822595.5,286047001.2,N
1621822615.3,286047001.0,N
1621822635.1,286047000.4,N
1621822655.9,286047002.4,N
1621822675.7,286047000.1,N
1621822695.5,286047002.7,N
1621822715.4,286047004.2,Y
1621822735.2,286047000.8,P
1621822755.1,286047000.9,P
1621822756.0,286047000.9,P
1621822775.8,286046999.7,N
1621822795.6,286047002.8,Y
1621822815.5,286047002.8,P
1621822835.3,286047000.7,N
1621822855.2,286046998.1,N
1621822875.9,286046998.7,N
1621822895.7,286046996.6,N
1621822915.6,286047000.1,N
1621822935.4,286047002.3,N
1621822955.2,286046999.9,N
1621822975.1,286047002.8,N
1621822976.0,286047002.8,N
1621822995.8,286046999.0,N
1621823015.7,286047001.2,N
1621823035.5,286046999.7,N
1621823055.3,286047001.7,N
1621823075.2,286047000.0,N
1621823095.0,286046996.5,N
1621823095.9,286046996.5,N
1621823115.8,286046994.9,N
1621823135.6,286046995.2,N
1621823155.4,286046996.0,N
1621823175.3,286046997.8,N
1621823195.1,286046997.0,N
1621823215.8,286046997.6,N
1621823235.7,286046995.4,N
1621823255.5,286046995.2,N
1621823275.4,286046996.1,N
1621823295.2,286046997.9,N
1621823315.0,286046996.9,N
1621823315.9,286046996.9,N
1621823335.8,286046998.3,N
1621823355.6,286046996.9,N
1621823375.4,286046995.0,N
1621823395.3,286046996.4,N
1621823415.1,286046997.9,N
1621823435.9,286046998.0,N
1621823455.7,286046997.4,N
1621823475.5,286046997.0,N
1621823495.4,286046998.3,N
1621823515.2,286046998.4,N
1621823535.0,286046997.5,N
1621823536.0,286046997.5,N
1621823555.8,286046999.0,N
1621823575.6,286047000.4,N
1621823595.5,286046998.6,N
1621823615.3,286046999.1,N
1621823635.1,286046999.2,N
1621823655.9,286047001.1,N
1621823675.7,286046998.3,N
1621823695.6,286047001.0,N
1621823715.4,286046998.6,N
1621823735.2,286047000.9,N
1621823755.1,286046996.5,N
1621823756.0,286046996.5,N
1621823775.8,286046999.6,N
1621823795.6,286046998.5,N
1621823815.5,286046998.1,N
1621823835.3,286047001.4,N
1621823855.2,286047002.0,N
1621823875.9,286046998.5,N
1621823895.7,286046999.6,N
1621823915.6,286046999.6,N
1621823935.4,286046995.3,N
1621823955.2,286046997.5,N
1621823975.1,286046996.7,N
1621823976.0,286046996.7,N
1621823995.8,286046998.3,N
1621824015.7,286046998.5,N
1621824035.5,286046999.3,N
1621824055.3,286046998.3,N
1621824075.2,286046998.3,N
1621824095.0,286046996.9,N
1621824095.9,286046996.9,N
1621824115.7,286046999.2,N
1621824135.6,286046999.6,N
1621824155.4,286046997.7,N
1621824175.3,286047000.8,N
1621824195.1,286047000.5,N
1621824196.0,286047000.5,N
1621824215.8,286047002.4,N
1621824235.7,286047004.4,N
1621824255.5,286047002.5,N
1621824275.3,286047001.2,N
1621824295.2,286047002.5,N
1621824315.0,286046999.9,N
1621824315.9,286046999.9,N
1621824335.8,286047002.0,N
1621824355.6,286047000.1,N
1621824375.4,286047001.7,N
1621824395.3,286047002.2,N
1621824415.1,286047004.4,N
1621824435.9,286047001.4,N
1621824455.7,286047002.6,N
1621824475.5,286047003.0,N
1621824495.4,286047002.5,N
1621824515.2,286047004.1,N
1621824535.0,286047004.1,N
1621824535.9,286047004.1,N
1621824555.8,286047002.3,N
1621824575.6,286047001.7,N
1621824595.5,286047005.5,N
1621824615.3,286047003.8,N
1621824635.1,286047001.3,N
1621824655.9,286047002.5,N
1621824675.7,286047002.7,N
1621824695.6,286047005.4,Y
1621824715.4,286047003.3,P
1621824735.2,286047001.8,P
1621824755.1,286047001.4,N
1621824756.0,286047001.4,N
1621824775.8,286047000.7,N
1621824795.7,286047001.1,N
1621824815.5,286047001.8,N
1621824835.3,286047004.1,Y
1621824855.2,286046999.7,P
1621824875.0,286047004.3,P
1621824875.9,286047004.3,N
1621824895.8,286047002.3,N
1621824915.6,286046999.7,N
1621824935.4,286047000.3,N
1621824955.3,286046999.9,N
1621824975.1,286046998.7,N
1621824995.8,286046995.2,N
1621825015.7,286046996.0,N
1621825035.5,286046995.9,N
1621825055.4,286046993.6,N
1621825075.2,286046993.4,N
1621825095.0,286046993.7,N
1621825095.9,286046993.7,N
1621825115.8,286046996.3,N
1621825135.6,286046995.8,N
1621825155.4,286046991.9,N
1621825175.3,286046994.3,N
1621825195.1,286046993.0,N
